• In United Kingdom
  • List of Countries
  • For 7 days
  • Water Temperature
  • Satellite Maps
  • Weather Map
  • Weather Widgets
  • user-avatar
    Login

    Hourly Weather Kabul

    Today, 21 September, Friday

    Time Temperature Precipitation Wind Pressure Humidity
    00:00 +18°C° 0 mm 2 mps 611 mmHg 26%
    01:00 +18°C° 0 mm 2 mps 610 mmHg 28%
    02:00 +17°C° 0 mm 2 mps 610 mmHg 30%
    03:00 +16°C° 0 mm 1 mps 610 mmHg 31%
    04:00 +16°C° 0 mm 1 mps 610 mmHg 32%
    05:00 +15°C° 0 mm 1 mps 610 mmHg 32%
    06:00 +18°C° 0 mm 1 mps 611 mmHg 29%
    07:00 +19°C° 0 mm 1 mps 611 mmHg 26%
    08:00 +20°C° 0 mm 1 mps 612 mmHg 23%
    09:00 +20°C° 0 mm 2 mps 613 mmHg 21%
    10:00 +21°C° 0 mm 2 mps 613 mmHg 20%
    11:00 +24°C° 0 mm 2 mps 613 mmHg 18%
    12:00 +25°C° 0 mm 2 mps 613 mmHg 17%
    13:00 +26°C° 0 mm 2 mps 613 mmHg 17%
    14:00 +26°C° 0 mm 3 mps 613 mmHg 16%
    15:00 +26°C° 0 mm 3 mps 613 mmHg 16%
    16:00 +26°C° 0 mm 3 mps 613 mmHg 16%
    17:00 +26°C° 0 mm 4 mps 612 mmHg 16%
    18:00 +24°C° 0 mm 3 mps 612 mmHg 17%
    19:00 +22°C° 0 mm 3 mps 612 mmHg 18%
    20:00 +20°C° 0 mm 3 mps 612 mmHg 19%
    21:00 +19°C° 0 mm 2 mps 612 mmHg 19%
    22:00 +19°C° 0 mm 2 mps 612 mmHg 20%
    23:00 +19°C° 0 mm 1 mps 611 mmHg 20%

    Tomorrow, 22 September, Saturday

    Time Temperature Precipitation Wind Pressure Humidity
    00:00 +18°C° 0 mm 1 mps 611 mmHg 21%
    01:00 +18°C° 0 mm 1 mps 611 mmHg 23%
    02:00 +16°C° 0 mm 1 mps 611 mmHg 24%
    03:00 +16°C° 0 mm 1 mps 611 mmHg 27%
    04:00 +15°C° 0 mm 1 mps 610 mmHg 29%
    05:00 +15°C° 0 mm 1 mps 610 mmHg 32%
    06:00 +16°C° 0 mm 1 mps 611 mmHg 32%
    07:00 +18°C° 0 mm 1 mps 611 mmHg 31%
    08:00 +19°C° 0 mm 1 mps 612 mmHg 31%
    09:00 +20°C° 0 mm 1 mps 612 mmHg 28%
    10:00 +21°C° 0 mm 2 mps 612 mmHg 25%
    11:00 +23°C° 0 mm 2 mps 613 mmHg 23%
    12:00 +24°C° 0 mm 2 mps 613 mmHg 21%
    13:00 +25°C° 0 mm 2 mps 613 mmHg 19%
    14:00 +26°C° 0 mm 3 mps 613 mmHg 17%
    15:00 +26°C° 0 mm 3 mps 613 mmHg 17%
    16:00 +26°C° 0 mm 3 mps 612 mmHg 16%
    17:00 +26°C° 0 mm 3 mps 612 mmHg 16%
    18:00 +24°C° 0 mm 3 mps 612 mmHg 17%
    19:00 +23°C° 0 mm 2 mps 612 mmHg 19%
    20:00 +20°C° 0 mm 2 mps 612 mmHg 20%
    21:00 +19°C° 0 mm 2 mps 612 mmHg 22%
    22:00 +19°C° 0 mm 2 mps 612 mmHg 23%
    23:00 +19°C° 0 mm 1 mps 611 mmHg 24%

    Day after tomorrow, 23 September, Sunday

    Time Temperature Precipitation Wind Pressure Humidity
    00:00 +18°C° 0 mm 1 mps 611 mmHg 25%
    01:00 +18°C° 0 mm 1 mps 611 mmHg 26%
    02:00 +16°C° 0 mm 1 mps 611 mmHg 27%
    03:00 +15°C° 0 mm 1 mps 610 mmHg 29%
    04:00 +15°C° 0 mm 1 mps 610 mmHg 30%
    05:00 +14°C° 0 mm 1 mps 610 mmHg 31%
    06:00 +16°C° 0 mm 1 mps 610 mmHg 29%
    07:00 +18°C° 0 mm 1 mps 611 mmHg 27%
    08:00 +19°C° 0 mm 1 mps 612 mmHg 25%
    09:00 +20°C° 0 mm 1 mps 612 mmHg 23%
    10:00 +22°C° 0 mm 1 mps 612 mmHg 21%
    11:00 +23°C° 0 mm 2 mps 613 mmHg 19%
    12:00 +24°C° 0 mm 2 mps 613 mmHg 17%
    13:00 +25°C° 0 mm 2 mps 612 mmHg 15%
    14:00 +26°C° 0 mm 2 mps 612 mmHg 13%
    15:00 +26°C° 0 mm 3 mps 612 mmHg 13%
    16:00 +26°C° 0 mm 3 mps 612 mmHg 13%
    17:00 +26°C° 0 mm 3 mps 612 mmHg 12%
    18:00 +24°C° 0 mm 2 mps 611 mmHg 16%
    19:00 +21°C° 0 mm 2 mps 611 mmHg 19%
    20:00 +19°C° 0 mm 2 mps 611 mmHg 22%
    21:00 +20°C° 0 mm 1 mps 611 mmHg 26%
    22:00 +19°C° 0 mm 1 mps 611 mmHg 30%
    23:00 +18°C° 0 mm 1 mps 610 mmHg 34%

    24 September, Monday

    Time Temperature Precipitation Wind Pressure Humidity
    00:00 +16°C° 0 mm 1 mps 610 mmHg 37%
    01:00 +16°C° 0 mm 1 mps 610 mmHg 40%
    02:00 +15°C° 0 mm 1 mps 609 mmHg 43%
    03:00 +15°C° 0 mm 1 mps 609 mmHg 45%
    04:00 +14°C° 0 mm 1 mps 608 mmHg 46%
    05:00 +14°C° 0 mm 1 mps 608 mmHg 48%
    06:00 +15°C° 0 mm 1 mps 609 mmHg 43%
    07:00 +16°C° 0 mm 1 mps 610 mmHg 38%
    08:00 +19°C° 0 mm 1 mps 610 mmHg 33%
    09:00 +20°C° 0 mm 1 mps 611 mmHg 28%
    10:00 +22°C° 0 mm 1 mps 611 mmHg 24%
    11:00 +23°C° 0 mm 1 mps 611 mmHg 19%
    12:00 +24°C° 0 mm 1 mps 611 mmHg 17%
    13:00 +25°C° 0 mm 2 mps 611 mmHg 16%
    14:00 +26°C° 0 mm 2 mps 611 mmHg 15%
    15:00 +26°C° 0 mm 2 mps 611 mmHg 15%
    16:00 +25°C° 0 mm 2 mps 611 mmHg 15%
    17:00 +25°C° 0 mm 2 mps 610 mmHg 15%
    18:00 +24°C° 0 mm 2 mps 610 mmHg 18%
    19:00 +21°C° 0 mm 2 mps 610 mmHg 21%
    20:00 +20°C° 0 mm 2 mps 610 mmHg 24%
    21:00 +20°C° 0 mm 1 mps 610 mmHg 28%
    22:00 +19°C° 0 mm 1 mps 610 mmHg 31%
    23:00 +18°C° 0 mm 1 mps 610 mmHg 35%

    25 September, Tuesday

    Time Temperature Precipitation Wind Pressure Humidity
    00:00 +18°C° 0 mm 1 mps 609 mmHg 37%
    01:00 +16°C° 0 mm 1 mps 609 mmHg 39%
    02:00 +15°C° 0 mm 1 mps 609 mmHg 41%
    03:00 +15°C° 0 mm 1 mps 609 mmHg 41%
    04:00 +15°C° 0 mm 1 mps 609 mmHg 40%
    05:00 +14°C° 0 mm 1 mps 608 mmHg 40%
    06:00 +16°C° 0 mm 1 mps 609 mmHg 35%
    07:00 +18°C° 0 mm 1 mps 610 mmHg 31%
    08:00 +19°C° 0 mm 1 mps 611 mmHg 26%
    09:00 +21°C° 0 mm 1 mps 611 mmHg 23%
    10:00 +22°C° 0 mm 1 mps 612 mmHg 20%
    11:00 +23°C° 0 mm 1 mps 612 mmHg 17%
    12:00 +24°C° 0 mm 2 mps 612 mmHg 15%
    13:00 +25°C° 0 mm 2 mps 612 mmHg 14%
    14:00 +26°C° 0 mm 2 mps 612 mmHg 12%
    15:00 +26°C° 0 mm 2 mps 612 mmHg 12%
    16:00 +26°C° 0 mm 3 mps 612 mmHg 12%
    17:00 +25°C° 0 mm 3 mps 611 mmHg 12%
    18:00 +24°C° 0 mm 3 mps 611 mmHg 15%
    19:00 +21°C° 0 mm 2 mps 611 mmHg 18%
    20:00 +19°C° 0 mm 2 mps 611 mmHg 20%
    21:00 +19°C° 0 mm 2 mps 611 mmHg 22%
    22:00 +18°C° 0 mm 2 mps 610 mmHg 23%
    23:00 +17°C° 0 mm 2 mps 610 mmHg 25%

    26 September, Wednesday

    Time Temperature Precipitation Wind Pressure Humidity
    00:00 +17°C° 0 mm 2 mps 610 mmHg 25%
    01:00 +16°C° 0 mm 1 mps 609 mmHg 26%
    02:00 +16°C° 0 mm 1 mps 609 mmHg 27%
    03:00 +15°C° 0 mm 1 mps 609 mmHg 27%
    04:00 +15°C° 0 mm 1 mps 608 mmHg 27%
    05:00 +14°C° 0 mm 1 mps 608 mmHg 27%
    06:00 +16°C° 0 mm 1 mps 609 mmHg 25%
    07:00 +18°C° 0 mm 1 mps 610 mmHg 22%
    08:00 +19°C° 0 mm 1 mps 611 mmHg 20%
    09:00 +21°C° 0 mm 1 mps 611 mmHg 18%
    10:00 +22°C° 0 mm 1 mps 611 mmHg 17%
    11:00 +23°C° 0 mm 1 mps 612 mmHg 15%
    12:00 +24°C° 0 mm 2 mps 612 mmHg 14%
    13:00 +25°C° 0 mm 2 mps 612 mmHg 13%
    14:00 +26°C° 0 mm 2 mps 611 mmHg 12%
    15:00 +26°C° 0 mm 2 mps 611 mmHg 13%
    16:00 +25°C° 0 mm 2 mps 611 mmHg 13%
    17:00 +25°C° 0 mm 3 mps 611 mmHg 13%
    18:00 +24°C° 0 mm 2 mps 611 mmHg 16%
    19:00 +23°C° 0 mm 2 mps 611 mmHg 18%
    20:00 +20°C° 0 mm 2 mps 611 mmHg 20%
    21:00 +20°C° 0 mm 2 mps 611 mmHg 22%
    22:00 +19°C° 0 mm 2 mps 611 mmHg 23%
    23:00 +19°C° 0 mm 2 mps 611 mmHg 24%
    Show more